St. Cloud, MN

5:48 PM CDT on May 24, 2017 (GMT -0500)
Saint Cloud Regional

Weather History for KSTC - February, 2014

Change the Weather History Date:

Wednesday, February 19, 2014

  Actual Average Record
Temperature  
Mean Temperature 22 °F 18 °F  
Max Temperature 39 °F 28 °F 58 °F (2017)
Min Temperature 4 °F 9 °F -26 °F (1910)
Degree Days  
Heating Degree Days 43 47  
Month to date heating degree days 1122 942  
Since 1 July heating degree days 6672 6044  
Cooling Degree Days 0 0  
Month to date cooling degree days 0 0  
Year to date cooling degree days 0 0  
Moisture  
Dew Point 15 °F    
Average Humidity 76    
Maximum Humidity 88    
Minimum Humidity 64    
Precipitation  
Precipitation 0.00 in 0.03 in 0.53 in (1971)
Month to date precipitation 0.52 0.35  
Year to date precipitation 1.86 1.00  
Snow  
Snow 0.00 in 0.20 in 4.90 in (1951)
Month to date snowfall 5.2 4.4  
Since 1 July snowfall 46.0 31.6  
Snow Depth 18.00 in    
Sea Level Pressure  
Sea Level Pressure 29.78 in    
Wind  
Wind Speed 6 mph (South)    
Max Wind Speed 16 mph    
Max Gust Speed 22 mph    
Visibility 6 miles    
Events Fog    
T = Trace of Precipitation, MM = Missing Value Source: NWS Daily Summary

Daily Weather History Graph

Daily Weather History Graph

Search for Another Location

Airport or City:

Trip Planner

Search our weather history database for the weather conditions in past years. The results will help you decide how hot, cold, wet, or windy it might be!

Date:

Astronomy

Feb. 19, 2014 Rise Set
Actual Time 7:11 AM CST 5:49 PM CST
Civil Twilight 6:41 AM CST 6:19 PM CST
Nautical Twilight 6:06 AM CST 6:53 PM CST
Astronomical Twilight 5:32 AM CST 7:28 PM CST
Moon 11:00 PM CST (2/19) 9:02 AM CST (2/19)
Length of Visible Light 11h 37m
Length of Day
10h 37m
Waning Gibbous, 79% of the Moon is Illuminated
Feb 19
Waning Gibbous
Feb 22
Last Quarter
Mar 1
New
Mar 8
First Quarter
Mar 16
Full

Hourly Weather History & Observations

Time (CST) Temp. Windchill Dew Point Humidity Pressure Visibility Wind Dir Wind Speed Gust Speed Precip Events Conditions
12:53 AM 23.0 °F 18.4 °F 17.1 °F 78% 29.80 in 10.0 mi West 3.5 mph - N/A   Clear
1:53 AM 19.9 °F 14.9 °F 16.0 °F 85% 29.81 in 10.0 mi WSW 3.5 mph - N/A   Clear
2:53 AM 16.0 °F 10.4 °F 12.9 °F 88% 29.81 in 6.0 mi SSW 3.5 mph - N/A   Clear
3:53 AM 19.0 °F - 14.0 °F 81% 29.81 in 6.0 mi Calm Calm - N/A   Haze
4:18 AM 15.8 °F - 12.2 °F 86% 29.75 in 1.8 mi Calm Calm - N/A   Clear
4:40 AM 12.2 °F - 8.6 °F 85% 29.76 in 0.5 mi Calm Calm - N/A Fog Light Freezing Fog
4:53 AM 12.0 °F 5.9 °F 9.0 °F 88% 29.83 in 0.2 mi SSW 3.5 mph - N/A Fog Light Freezing Fog
5:01 AM 10.4 °F - 6.8 °F 85% 29.76 in 0.2 mi Calm Calm - N/A Fog Light Freezing Fog
5:24 AM 12.2 °F 6.1 °F 8.6 °F 85% 29.76 in 0.5 mi South 3.5 mph - N/A Fog Light Freezing Fog
5:42 AM 10.4 °F - 5.0 °F 79% 29.76 in 0.2 mi Calm Calm - N/A   Haze
5:53 AM 10.9 °F 4.7 °F 6.1 °F 81% 29.83 in 0.2 mi SSW 3.5 mph - N/A   Haze
6:07 AM 6.8 °F - 3.2 °F 85% 29.76 in 0.2 mi Calm Calm - N/A Fog Light Freezing Fog
6:47 AM 6.8 °F - 3.2 °F 85% 29.76 in 1.0 mi Calm Calm - N/A   Mist
6:49 AM 6.8 °F - 1.4 °F 79% 29.76 in 2.5 mi Calm Calm - N/A   Haze
6:53 AM 7.0 °F 0.1 °F 1.9 °F 80% 29.83 in 6.0 mi SSE 3.5 mph - N/A   Haze
7:02 AM 5.0 °F -2.1 °F 1.4 °F 85% 29.76 in 7.0 mi SSE 3.5 mph - N/A   Mostly Cloudy
7:06 AM 3.2 °F - -0.4 °F 85% 29.76 in 0.5 mi Calm Calm - N/A Fog Light Freezing Fog
7:29 AM 6.8 °F - 1.4 °F 79% 29.77 in 1.5 mi Calm Calm - N/A   Haze
7:53 AM 9.0 °F - 3.9 °F 80% 29.84 in 1.5 mi Calm Calm - N/A   Haze
8:00 AM 8.6 °F - 3.2 °F 79% 29.77 in 2.0 mi Calm Calm - N/A   Haze
8:53 AM 12.9 °F - 9.0 °F 84% 29.86 in 10.0 mi Calm Calm - N/A   Clear
9:53 AM 23.0 °F - 19.9 °F 88% 29.86 in 10.0 mi Calm Calm - N/A   Clear
10:53 AM 28.0 °F 21.7 °F 23.0 °F 81% 29.85 in 10.0 mi SSW 5.8 mph - N/A   Clear
11:53 AM 34.0 °F 27.2 °F 24.1 °F 67% 29.83 in 10.0 mi South 8.1 mph - N/A   Clear
12:53 PM 35.1 °F 28.6 °F 25.0 °F 67% 29.81 in 10.0 mi South 8.1 mph - N/A   Clear
1:53 PM 37.9 °F 31.5 °F 27.0 °F 65% 29.79 in 10.0 mi South 9.2 mph - N/A   Clear
2:53 PM 37.0 °F 30.4 °F 27.0 °F 67% 29.78 in 10.0 mi South 9.2 mph - N/A   Clear
3:53 PM 35.1 °F 27.4 °F 27.0 °F 72% 29.77 in 10.0 mi SE 10.4 mph - N/A   Scattered Clouds
4:53 PM 36.0 °F 29.0 °F 27.0 °F 70% 29.76 in 10.0 mi SSE 9.2 mph - N/A   Overcast
5:53 PM 37.9 °F 33.5 °F 27.0 °F 65% 29.74 in 10.0 mi ESE 5.8 mph - N/A   Overcast
6:53 PM 36.0 °F 29.0 °F 26.1 °F 67% 29.74 in 10.0 mi SE 9.2 mph - N/A   Clear
7:53 PM 35.1 °F 27.9 °F 25.0 °F 67% 29.72 in 10.0 mi SE 9.2 mph - N/A   Clear
8:53 PM 35.1 °F 27.4 °F 26.1 °F 70% 29.70 in 10.0 mi SE 10.4 mph - N/A   Clear
9:53 PM 34.0 °F 25.0 °F 27.0 °F 75% 29.68 in 10.0 mi SE 12.7 mph - N/A   Partly Cloudy
10:53 PM 37.0 °F 29.3 °F 28.0 °F 70% 29.67 in 10.0 mi SSE 11.5 mph - N/A   Overcast
11:53 PM 37.9 °F 29.2 °F 28.0 °F 68% 29.66 in 10.0 mi SSE 15.0 mph - N/A   Overcast